Weather History for KESN - March, 2013

Change the Weather History Date:

Sunday, March 17, 2013

  Actual Average Record
Temperature  
Mean Temperature 37 °F -  
Max Temperature 41 °F - - ()
Min Temperature 33 °F - - ()
Degree Days  
Heating Degree Days 28    
Moisture  
Dew Point 32 °F    
Average Humidity 85    
Maximum Humidity 99    
Minimum Humidity 65    
Precipitation  
Precipitation 0.00 in - - ()
Sea Level Pressure  
Sea Level Pressure 30.10 in    
Wind  
Wind Speed 8 mph (NE)    
Max Wind Speed 14 mph    
Max Gust Speed 17 mph    
Visibility 9 miles    
Events      
T = Trace of Precipitation, MM = Missing Value Source: NWS Daily Summary

Daily Weather History Graph

Daily Weather History Graph

Search for Another Location

Airport or City:

Trip Planner

Search our weather history database for the weather conditions in past years. The results will help you decide how hot, cold, wet, or windy it might be!

Date:

Astronomy

Mar. 17, 2013 Rise Set
Actual Time 7:12 AM EDT 7:13 PM EDT
Civil Twilight 6:45 AM EDT 7:40 PM EDT
Nautical Twilight 6:14 AM EDT 8:11 PM EDT
Astronomical Twilight 5:43 AM EDT 8:42 PM EDT
Moon 10:26 AM EDT (3/17) 12:16 AM EDT (3/17)
Length of Visible Light 12h 54m
Length of Day
12h 01m
Waxing Crescent, 31% of the Moon is Illuminated
Mar 17
Waxing Crescent
Mar 19
First Quarter
Mar 27
Full
Apr 3
Last Quarter
Apr 10
New

Hourly Weather History & Observations

Time (EDT) Temp. Windchill Dew Point Humidity Pressure Visibility Wind Dir Wind Speed Gust Speed Precip Events Conditions
12:18 AM 35.6 °F 29.9 °F 34.7 °F 97% 29.95 in 10.0 mi NNE 6.9 mph - N/A   Scattered Clouds
12:38 AM 36.5 °F 29.2 °F 35.4 °F 96% 29.95 in 10.0 mi NNE 10.4 mph - N/A   Overcast
12:58 AM 36.5 °F 28.7 °F 35.4 °F 96% 29.95 in 7.0 mi NE 11.5 mph - N/A   Overcast
1:18 AM 36.5 °F 29.2 °F 35.2 °F 95% 29.96 in 7.0 mi NNE 10.4 mph - N/A   Overcast
1:38 AM 36.5 °F 29.7 °F 35.2 °F 95% 29.96 in 7.0 mi NE 9.2 mph - N/A   Overcast
1:58 AM 36.5 °F 30.3 °F 35.6 °F 97% 29.97 in 7.0 mi NE 8.1 mph - N/A   Overcast
2:18 AM 36.5 °F 29.7 °F 35.6 °F 97% 29.97 in 7.0 mi NE 9.2 mph - N/A   Overcast
2:38 AM 36.3 °F 28.4 °F 35.4 °F 97% 29.98 in 7.0 mi NE 11.5 mph - N/A   Overcast
2:58 AM 35.6 °F 27.5 °F 34.9 °F 97% 29.98 in 7.0 mi NE 11.5 mph - N/A   Mostly Cloudy
3:18 AM 35.2 °F 27.6 °F 34.7 °F 98% 29.98 in 7.0 mi NNE 10.4 mph - N/A   Overcast
3:38 AM 35.1 °F 27.4 °F 34.7 °F 99% 29.99 in 7.0 mi NE 10.4 mph 16.1 mph N/A   Overcast
3:58 AM 35.1 °F 26.9 °F 34.5 °F 98% 30.00 in 7.0 mi NE 11.5 mph - N/A   Overcast
4:18 AM 35.1 °F 27.9 °F 34.5 °F 98% 30.01 in 5.0 mi NE 9.2 mph - N/A   Overcast
4:38 AM 35.6 °F 28.6 °F 34.7 °F 97% 30.01 in 5.0 mi NE 9.2 mph - N/A   Overcast
4:58 AM 35.6 °F 28.6 °F 34.7 °F 97% 30.01 in 7.0 mi NE 9.2 mph - N/A   Overcast
5:19 AM 36.0 °F 30.3 °F 34.7 °F 95% 30.04 in 7.0 mi NNE 6.9 mph - N/A   Overcast
5:50 AM 35.6 °F 27.5 °F 33.8 °F 93% 30.05 in 7.0 mi North 11.5 mph - N/A   Overcast
5:59 AM 35.8 °F 26.9 °F 33.4 °F 91% 30.06 in 10.0 mi NNE 13.8 mph - N/A   Overcast
6:19 AM 35.1 °F 26.9 °F 32.9 °F 92% 30.06 in 10.0 mi NNE 11.5 mph 17.3 mph N/A   Mostly Cloudy
6:39 AM 34.3 °F 28.4 °F 32.5 °F 93% 30.08 in 10.0 mi NNE 6.9 mph - N/A   Scattered Clouds
6:55 AM 33.8 °F 26.4 °F 32.0 °F 93% 30.08 in 10.0 mi NNE 9.2 mph - N/A   Mostly Cloudy
6:59 AM 34.2 °F 28.2 °F 32.0 °F 92% 30.08 in 10.0 mi NE 6.9 mph - N/A   Scattered Clouds
7:19 AM 34.2 °F 31.2 °F 32.2 °F 92% 30.11 in 10.0 mi NE 3.5 mph - N/A   Clear
7:39 AM 34.7 °F 30.6 °F 32.2 °F 91% 30.11 in 10.0 mi NNE 4.6 mph - N/A   Clear
7:40 AM 34.7 °F 31.8 °F 32.2 °F 91% 30.11 in 10.0 mi NE 3.5 mph - N/A   Clear
7:55 AM 35.6 °F 31.7 °F 32.0 °F 87% 30.12 in 10.0 mi NE 4.6 mph - N/A   Mostly Cloudy
8:50 AM 37.4 °F 32.1 °F 32.0 °F 81% 30.14 in 10.0 mi NE 6.9 mph - N/A   Mostly Cloudy
9:50 AM 39.2 °F 32.0 °F 32.0 °F 75% 30.15 in 10.0 mi ENE 11.5 mph - N/A   Mostly Cloudy
10:58 AM 39.2 °F 34.2 °F 30.2 °F 70% 30.18 in 10.0 mi NNE 6.9 mph - N/A   Mostly Cloudy
11:50 AM 39.2 °F 33.6 °F 30.2 °F 70% 30.20 in 10.0 mi NE 8.1 mph - N/A   Overcast
12:50 PM 41.0 °F 37.1 °F 30.2 °F 65% 30.21 in 10.0 mi NNE 5.8 mph - N/A   Overcast
1:52 PM 39.2 °F 35.9 °F 28.4 °F 65% 30.19 in 10.0 mi NNE 4.6 mph - N/A   Scattered Clouds
2:53 PM 39.2 °F 33.6 °F 28.4 °F 65% 30.18 in 7.0 mi NNE 8.1 mph - N/A   Overcast
3:53 PM 39.2 °F 34.2 °F 30.2 °F 70% 30.21 in 7.0 mi North 6.9 mph - N/A   Overcast
4:53 PM 37.4 °F 33.8 °F 28.4 °F 70% 30.22 in 10.0 mi NNE 4.6 mph - N/A   Overcast
5:53 PM 37.4 °F 32.8 °F 28.4 °F 70% 30.24 in 10.0 mi NNE 5.8 mph - N/A   Overcast
6:53 PM 37.4 °F 34.9 °F 28.4 °F 70% 30.25 in 10.0 mi North 3.5 mph - N/A   Overcast
7:53 PM 37.4 °F - 28.4 °F 70% 30.26 in 10.0 mi Calm Calm - N/A   Overcast
8:53 PM 37.4 °F - 30.2 °F 75% 30.29 in 10.0 mi Calm Calm - N/A   Overcast
11:01 PM 36.9 °F 32.2 °F 28.6 °F 72% 30.31 in 10.0 mi ENE 5.8 mph - N/A   Clear
11:21 PM 36.9 °F 30.7 °F 27.3 °F 68% 30.31 in 10.0 mi NE 8.1 mph - N/A   Clear
11:41 PM 36.9 °F 31.4 °F 26.4 °F 66% 30.31 in 10.0 mi NE 6.9 mph - N/A   Clear